Weather History for Camarillo, CA

Change the Weather History Date:

Monday, July 29, 2013

  Actual Average Record
Temperature  
Mean Temperature 66 °F 67 °F  
Max Temperature 72 °F 77 °F 85 °F (1954)
Min Temperature 60 °F 58 °F 52 °F (2010)
Degree Days  
Heating Degree Days 0 0  
Month to date heating degree days 1 1  
Since 1 June heating degree days 1 44  
Since 1 July heating degree days 1 1  
Cooling Degree Days 1 3  
Month to date cooling degree days 203 70  
Year to date cooling degree days 455 124  
Since 1 June cooling degree days 349 93  
Growing Degree Days 16 (Base 50)    
Moisture  
Dew Point 57 °F    
Average Humidity 74    
Maximum Humidity 90    
Minimum Humidity 57    
Precipitation  
Precipitation 0.00 in 0.00 in 0.01 in (2003)
Month to date precipitation 0.04 0.02  
Year to date precipitation 2.19 11.00  
Since 1 July precipitation 0.04 0.02  
Sea Level Pressure  
Sea Level Pressure 30.00 in    
Wind  
Wind Speed 5 mph (WSW)    
Max Wind Speed 13 mph    
Max Gust Speed 20 mph    
Visibility 9 miles    
Events      
T = Trace of Precipitation, MM = Missing Value Source: NWS Daily Summary

Daily Weather History Graph

Daily Weather History Graph

Search for Another Location

Airport:

Trip Planner

Search our weather history database for the weather conditions in past years. The results will help you decide how hot, cold, wet, or windy it might be!

Date:

Astronomy

Jul. 29, 2013 Rise Set
Actual Time 6:05 AM PDT 7:59 PM PDT
Civil Twilight 5:37 AM PDT 8:27 PM PDT
Nautical Twilight 5:04 AM PDT 9:00 PM PDT
Astronomical Twilight 4:28 AM PDT 9:36 PM PDT
Moon No Moon Rise 1:28 PM PDT (7/29)
Length of Visible Light 14h 49m
Length of Day
13h 54m
Waning Gibbous, 50% of the Moon is Illuminated
Jul 29
Waning Gibbous
Aug 6
New
Aug 14
First Quarter
Aug 20
Full
Aug 28
Last Quarter

Hourly Weather History & Observations

Time (PDT) Temp. Dew Point Humidity Pressure Visibility Wind Dir Wind Speed Gust Speed Precip Events Conditions
12:55 AM 63.0 °F 57.0 °F 81% 29.95 in 10.0 mi WSW 3.5 mph - N/A   Overcast
1:55 AM 62.1 °F 57.0 °F 84% 29.95 in 10.0 mi WSW 4.6 mph - N/A   Overcast
2:51 AM 60.8 °F 57.2 °F 88% 29.93 in 5.0 mi WSW 4.6 mph - N/A   Overcast
2:55 AM 61.0 °F 57.9 °F 90% 29.95 in 5.0 mi West 4.6 mph - N/A   Overcast
3:55 AM 60.1 °F 57.9 °F 93% 29.95 in 3.0 mi NW 3.5 mph - N/A   Overcast
4:52 AM 60.8 °F 57.2 °F 88% 29.93 in 7.0 mi NNW 3.5 mph - N/A   Overcast
4:55 AM 61.0 °F 57.9 °F 90% 29.96 in 7.0 mi NW 3.5 mph - N/A   Overcast
5:55 AM 62.1 °F 57.9 °F 86% 29.98 in 6.0 mi Calm Calm - N/A   Overcast
6:55 AM 62.1 °F 57.9 °F 86% 29.99 in 7.0 mi Calm Calm - N/A   Overcast
7:55 AM 63.0 °F 57.9 °F 84% 30.00 in 10.0 mi West 3.5 mph - N/A   Overcast
8:14 AM 62.6 °F 57.2 °F 82% 29.98 in 9.0 mi West 3.5 mph - N/A   Overcast
8:55 AM 64.0 °F 57.9 °F 80% 30.01 in 9.0 mi NW 4.6 mph - N/A   Overcast
9:55 AM 66.9 °F 57.9 °F 73% 30.01 in 10.0 mi Variable 3.5 mph - N/A   Mostly Cloudy
10:55 AM 70.0 °F 57.9 °F 65% 30.02 in 10.0 mi SSW 9.2 mph - N/A   Mostly Cloudy
11:23 AM 69.8 °F 57.2 °F 64% 30.01 in 10.0 mi SSW 10.4 mph - N/A   Scattered Clouds
11:55 AM 69.1 °F 57.0 °F 65% 30.03 in 10.0 mi SW 9.2 mph - N/A   Scattered Clouds
12:55 PM 70.0 °F 55.9 °F 61% 30.04 in 10.0 mi SSW 8.1 mph - N/A   Partly Cloudy
1:55 PM 71.1 °F 55.9 °F 59% 30.03 in 10.0 mi WSW 8.1 mph - N/A   Clear
2:55 PM 71.1 °F 55.9 °F 59% 30.02 in 10.0 mi SW 8.1 mph 16.1 mph N/A   Clear
3:55 PM 70.0 °F 55.0 °F 59% 30.01 in 10.0 mi SSW 10.4 mph 19.6 mph N/A   Clear
4:55 PM 70.0 °F 55.0 °F 59% 30.01 in 10.0 mi SW 9.2 mph - N/A   Clear
5:55 PM 68.0 °F 54.0 °F 61% 30.00 in 10.0 mi SSW 9.2 mph - N/A   Clear
6:55 PM 68.0 °F 55.0 °F 63% 30.01 in 10.0 mi SW 6.9 mph - N/A   Clear
7:55 PM 66.0 °F 55.0 °F 68% 30.02 in 10.0 mi North - - N/A   Clear
8:55 PM 63.0 °F 55.9 °F 78% 30.03 in 10.0 mi West 5.8 mph - N/A   Clear
9:55 PM 63.0 °F 55.9 °F 78% 30.05 in 10.0 mi WNW 4.6 mph - N/A   Clear
10:30 PM 62.6 °F 57.2 °F 82% 30.03 in 10.0 mi WNW 5.8 mph - N/A   Mostly Cloudy
10:55 PM 62.1 °F 55.9 °F 80% 30.05 in 10.0 mi WNW 3.5 mph - N/A   Mostly Cloudy
11:10 PM 62.6 °F 55.4 °F 77% 30.02 in 10.0 mi West 4.6 mph - N/A   Scattered Clouds
11:55 PM 61.0 °F 55.0 °F 81% 30.06 in 10.0 mi Calm Calm - N/A   Clear